EZS25WG LMML-LSGG

Flight info

Callsign EZS25WG
Flight time N/A
Altitude 38000
Route GZO M622 SOPIR DCT MABOX DCT ADEXI DCT RONAB DCT KONER DCT AOSTA L615 BANKO
Aircraft A320/M-SDE2E3FGHIJ1RWXYZ/LB1

Departure

Time 2026-05-04 11:55
Airport Malta International Airport (LMML)

Arrival

Time N/A
Airport Geneva International Airport (LSGG)
Time Latitude Longitude Altitude Speed Heading
2026-05-04 11:31 35.84861 14.49456 259 ft 0 kts 359°
2026-05-04 11:46 35.84860 14.49456 258 ft 1 kts 359°
2026-05-04 11:47 35.84845 14.49456 258 ft 3 kts 358°
2026-05-04 11:47 35.84825 14.49457 258 ft 3 kts 356°
2026-05-04 11:47 35.84805 14.49459 258 ft 3 kts 353°
2026-05-04 11:47 35.84795 14.49461 258 ft 0 kts 353°
2026-05-04 11:50 35.84800 14.49457 258 ft 0 kts 323°
2026-05-04 11:51 35.84820 14.49416 259 ft 10 kts 302°
2026-05-04 11:51 35.84862 14.49357 259 ft 10 kts 314°
2026-05-04 11:51 35.84914 14.49292 259 ft 11 kts 310°
2026-05-04 11:51 35.84915 14.49172 260 ft 19 kts 238°
2026-05-04 11:52 35.84950 14.49036 261 ft 17 kts 304°
2026-05-04 11:52 35.84995 14.48898 262 ft 21 kts 284°
2026-05-04 11:52 35.85039 14.48708 265 ft 24 kts 293°
2026-05-04 11:52 35.85124 14.48529 267 ft 25 kts 310°
2026-05-04 11:53 35.85249 14.48381 267 ft 25 kts 315°
2026-05-04 11:53 35.85372 14.48225 268 ft 26 kts 314°
2026-05-04 11:53 35.85515 14.48086 267 ft 27 kts 335°
2026-05-04 11:53 35.85651 14.48043 266 ft 15 kts 34°
2026-05-04 11:55 35.85151 14.46717 288 ft 150 kts 231°
2026-05-04 11:55 35.84542 14.45665 943 ft 150 kts 231°
2026-05-04 11:56 35.83939 14.44623 1639 ft 149 kts 231°
2026-05-04 11:56 35.83345 14.43574 2228 ft 149 kts 232°
2026-05-04 11:56 35.82753 14.42525 2909 ft 150 kts 232°
2026-05-04 11:56 35.82117 14.41420 3261 ft 170 kts 233°
2026-05-04 11:57 35.81377 14.40149 3507 ft 195 kts 233°
2026-05-04 11:57 35.80553 14.38694 3826 ft 219 kts 237°
2026-05-04 11:57 35.79963 14.36858 4183 ft 245 kts 258°
2026-05-04 11:57 35.79949 14.34681 4664 ft 264 kts 281°
2026-05-04 11:58 35.80632 14.32565 5444 ft 270 kts 304°
2026-05-04 11:58 35.81952 14.30925 6300 ft 273 kts 328°
2026-05-04 11:58 35.83695 14.29959 7135 ft 276 kts 339°
2026-05-04 11:58 35.85490 14.29113 8011 ft 277 kts 339°
2026-05-04 11:59 35.87298 14.28267 8867 ft 279 kts 339°
2026-05-04 11:59 35.89091 14.27427 9740 ft 280 kts 339°
2026-05-04 11:59 35.90919 14.26570 10528 ft 283 kts 338°
2026-05-04 11:59 35.92824 14.25674 10841 ft 304 kts 338°
2026-05-04 12:00 35.94880 14.24705 11033 ft 328 kts 338°
2026-05-04 12:00 35.97084 14.23665 11237 ft 348 kts 338°
2026-05-04 12:00 35.99375 14.22584 11774 ft 356 kts 338°
2026-05-04 12:00 36.01697 14.21489 12440 ft 359 kts 338°
2026-05-04 12:01 36.03985 14.20215 13088 ft 363 kts 329°
2026-05-04 12:01 36.06083 14.18463 13755 ft 366 kts 323°
2026-05-04 12:02 36.18746 14.07236 17440 ft 379 kts 323°
2026-05-04 12:03 36.20889 14.05334 18020 ft 380 kts 323°
2026-05-04 12:03 36.23045 14.03420 18587 ft 382 kts 323°
2026-05-04 12:03 36.25211 14.01496 19083 ft 384 kts 323°
2026-05-04 12:03 36.27387 13.99561 19563 ft 386 kts 323°
2026-05-04 12:04 36.29572 13.97613 20045 ft 388 kts 323°
2026-05-04 12:04 36.31767 13.95657 20515 ft 389 kts 323°
2026-05-04 12:04 36.33968 13.93693 20979 ft 391 kts 323°
2026-05-04 12:04 36.36184 13.91718 21441 ft 393 kts 323°
2026-05-04 12:05 36.38412 13.89733 21897 ft 395 kts 323°
2026-05-04 12:05 36.40651 13.87739 22345 ft 397 kts 322°
2026-05-04 12:05 36.42900 13.85730 22809 ft 399 kts 322°
2026-05-04 12:05 36.45158 13.83708 23218 ft 401 kts 322°
2026-05-04 12:06 36.47426 13.81675 23627 ft 404 kts 322°
2026-05-04 12:06 36.49709 13.79626 23982 ft 406 kts 322°
2026-05-04 12:06 36.52003 13.77567 24338 ft 407 kts 322°
2026-05-04 12:06 36.54269 13.75530 24694 ft 408 kts 322°
2026-05-04 12:07 36.56571 13.73461 25058 ft 409 kts 322°
2026-05-04 12:07 36.58886 13.71384 25409 ft 410 kts 322°
2026-05-04 12:07 36.61205 13.69303 25754 ft 412 kts 322°
2026-05-04 12:07 36.63530 13.67214 26097 ft 413 kts 322°
2026-05-04 12:08 36.65860 13.65116 26430 ft 414 kts 322°
2026-05-04 12:08 36.68196 13.63012 26754 ft 415 kts 322°
2026-05-04 12:08 36.70534 13.60905 27073 ft 416 kts 322°
2026-05-04 12:08 36.72883 13.58789 27386 ft 417 kts 322°
2026-05-04 12:09 36.75237 13.56666 27686 ft 418 kts 322°
2026-05-04 12:09 36.77600 13.54533 27987 ft 419 kts 322°
2026-05-04 12:09 36.79964 13.52396 28283 ft 420 kts 322°
2026-05-04 12:09 36.82333 13.50249 28627 ft 420 kts 322°
2026-05-04 12:10 36.84690 13.48110 29047 ft 418 kts 322°
2026-05-04 12:10 36.86248 13.46696 29315 ft 417 kts 322°
2026-05-04 12:10 36.88589 13.44574 29728 ft 416 kts 322°
2026-05-04 12:10 36.90930 13.42451 30165 ft 414 kts 322°
2026-05-04 12:11 36.93254 13.40341 30540 ft 412 kts 322°
2026-05-04 12:11 36.95566 13.38241 30900 ft 411 kts 322°
2026-05-04 12:11 36.97873 13.36141 31248 ft 409 kts 321°
2026-05-04 12:11 37.00169 13.34050 31593 ft 408 kts 321°
2026-05-04 12:12 37.02454 13.31968 31940 ft 406 kts 321°
2026-05-04 12:12 37.04732 13.29887 32293 ft 404 kts 321°
2026-05-04 12:12 37.07000 13.27815 32645 ft 403 kts 321°
2026-05-04 12:12 37.09262 13.25747 32992 ft 401 kts 321°
2026-05-04 12:13 37.11513 13.23688 33341 ft 400 kts 321°
2026-05-04 12:14 37.27043 13.09446 35363 ft 394 kts 321°
2026-05-04 12:15 37.29256 13.07412 35581 ft 394 kts 321°
2026-05-04 12:15 37.31471 13.05378 35792 ft 394 kts 321°
2026-05-04 12:15 37.33717 13.03395 36015 ft 396 kts 325°
2026-05-04 12:15 37.36188 13.01829 36225 ft 401 kts 334°
2026-05-04 12:16 37.38827 13.00662 36429 ft 402 kts 336°
2026-05-04 12:16 37.41472 12.99522 36633 ft 402 kts 336°
2026-05-04 12:16 37.44123 12.98379 36831 ft 402 kts 336°
2026-05-04 12:16 37.46765 12.97237 37023 ft 402 kts 336°
2026-05-04 12:17 37.49411 12.96086 37223 ft 402 kts 336°
2026-05-04 12:17 37.52050 12.94934 37404 ft 402 kts 336°
2026-05-04 12:17 37.54693 12.93780 37577 ft 402 kts 336°
2026-05-04 12:17 37.57337 12.92629 37750 ft 402 kts 336°
2026-05-04 12:18 37.59979 12.91482 37925 ft 402 kts 336°
2026-05-04 12:18 37.62627 12.90333 38105 ft 402 kts 336°
2026-05-04 12:18 37.67924 12.88018 38166 ft 404 kts 336°
2026-05-04 12:19 37.73230 12.85694 38166 ft 404 kts 336°
2026-05-04 12:19 37.78501 12.83388 38166 ft 404 kts 336°
2026-05-04 12:20 37.83804 12.81056 38165 ft 404 kts 336°
2026-05-04 12:20 37.89107 12.78722 38168 ft 404 kts 336°
2026-05-04 12:21 37.94425 12.76382 38163 ft 404 kts 336°
2026-05-04 12:21 37.99746 12.74033 38171 ft 406 kts 336°
2026-05-04 12:22 38.05088 12.71678 38168 ft 407 kts 336°
2026-05-04 12:22 38.10436 12.69315 38165 ft 408 kts 336°
2026-05-04 12:23 38.15793 12.66940 38162 ft 408 kts 336°
2026-05-04 12:23 38.21153 12.64560 38184 ft 408 kts 336°
2026-05-04 12:24 38.26519 12.62174 38177 ft 409 kts 336°
2026-05-04 12:24 38.31898 12.59787 38176 ft 409 kts 336°
2026-05-04 12:25 38.37277 12.57396 38164 ft 410 kts 336°
2026-05-04 12:25 38.42658 12.54991 38166 ft 410 kts 336°
2026-05-04 12:26 38.48044 12.52578 38189 ft 410 kts 336°
2026-05-04 12:26 38.53430 12.50170 38182 ft 410 kts 336°
2026-05-04 12:27 38.58814 12.47764 38178 ft 410 kts 336°
2026-05-04 12:27 38.64196 12.45353 38172 ft 410 kts 336°
2026-05-04 12:28 38.69578 12.42925 38202 ft 410 kts 336°
2026-05-04 12:28 38.74936 12.40504 38179 ft 407 kts 336°
2026-05-04 12:29 38.80241 12.38111 38169 ft 407 kts 336°
2026-05-04 12:29 38.85579 12.35703 38166 ft 407 kts 336°
2026-05-04 12:30 38.90915 12.33284 38162 ft 407 kts 336°
2026-05-04 12:30 38.96252 12.30868 38188 ft 405 kts 336°
2026-05-04 12:31 39.01554 12.28464 38183 ft 403 kts 336°
2026-05-04 12:31 39.06824 12.26062 38179 ft 401 kts 336°